Location: Utrecht
(52.0907°N, 5.1214°E)
Time: 23:33:26
(UTC+02:00)

KKS-1 - Pass Details

Date: 01 July 2022
Orbit: 635 x 648 km, 98.2° (Epoch: 11 August)

Event Time Altitude Azimuth Distance (km) Brightness Sun altitude
Rises 00:55:15 0° 7° (N) 2,981 ? -14.1°
Reaches altitude 10° 00:57:41 10° 357° (N) 2,065 ? -14.1°
Maximum altitude 01:01:33 29° 298° (WNW) 1,190 ? -14.2°
Drops below altitude 10° 01:05:23 10° 238° (WSW) 2,047 ? -14.3°
Enters shadow 01:06:55 - 230° (SW) 2,608 ? -14.4°
